DW8295 Weather Reports


Display with metric or nautical units.
time (UTC)temp
F
wind
direction
speed
MPH
gust
MPH
rain 1hr
in
rain 24hr
in
rain mn
in
humidity
%
barometer
mb
20260906171634 72 340 2.0 10.0 0.00 0.00 0.00 39 1012.9
20260906171134 71 57 2.0 10.0 0.00 0.00 0.00 36 1013.0
20260906170633 71 67 2.0 6.0 0.00 0.00 0.00 37 1012.9
20260906170131 71 5 2.0 8.0 0.00 0.00 0.00 38 1013.0
20260906170115 71 329 3.0 9.0 0.00 0.00 0.00 39 1013.1
20260906165353 71 20 4.0 12.0 0.00 0.00 0.00 38 1013.2
20260906164853 71 0 4.0 12.0 0.00 0.00 0.00 41 1013.3
20260906164131 71 336 2.0 10.0 0.00 0.00 0.00 42 1013.2
20260906163632 70 9 2.0 10.0 0.00 0.00 0.00 42 1013.4
20260906163132 71 65 3.0 10.0 0.00 0.00 0.00 41 1013.5
20260906162634 70 355 4.0 12.0 0.00 0.00 0.00 45 1013.6
20260906162347 70 302 4.0 12.0 0.00 0.00 0.00 45 1013.6
20260906161938 70 351 4.0 10.0 0.00 0.00 0.00 46 1013.5
20260906161830 69 283 4.0 11.0 0.00 0.00 0.00 46 1013.6
20260906160627 69 314 2.0 11.0 0.00 0.00 0.00 47 1013.8
20260906160127 69 9 2.0 11.0 0.00 0.00 0.00 47 1013.8
20260906155628 69 321 3.0 13.0 0.00 0.00 0.00 48 1013.9
20260906155127 68 22 3.0 13.0 0.00 0.00 0.00 49 1013.9
20260906154625 68 15 2.0 11.0 0.00 0.00 0.00 49 1014.0
20260906154127 68 0 2.0 11.0 0.00 0.00 0.00 51 1014.0
20260906153625 67 355 3.0 11.0 0.00 0.00 0.00 50 1014.0
20260906153123 67 329 3.0 10.0 0.00 0.00 0.00 53 1014.2
20260906152621 67 335 2.0 10.0 0.00 0.00 0.00 53 1014.2
20260906152121 67 345 2.0 10.0 0.00 0.00 0.00 54 1014.0
20260906151622 66 17 2.0 10.0 0.00 0.00 0.00 54 1014.0
20260906151123 66 49 2.0 6.0 0.00 0.00 0.00 57 1014.1
20260906150623 66 0 2.0 8.0 0.00 0.00 0.00 57 1014.2
20260906150121 65 60 4.0 15.0 0.00 0.00 0.00 56 1014.2
20260906145622 65 0 3.0 15.0 0.00 0.00 0.00 58 1014.3
20260906145121 65 355 2.0 9.0 0.00 0.00 0.00 61 1014.4
20260906144620 65 58 3.0 11.0 0.00 0.00 0.00 63 1014.4
20260906144119 65 355 3.0 11.0 0.00 0.00 0.00 63 1014.4
20260906143845 65 328 2.0 9.0 0.00 0.00 0.00 63 1014.4
20260906143118 64 0 3.0 11.0 0.00 0.00 0.00 67 1014.4
20260906142840 64 344 2.0 13.0 0.00 0.00 0.00 67 1014.4
20260906142115 64 351 2.0 13.0 0.00 0.00 0.00 70 1014.4
20260906141615 64 17 2.0 13.0 0.00 0.00 0.00 69 1014.4
20260906141116 64 310 1.0 8.0 0.00 0.00 0.00 70 1014.4
20260906140616 64 46 1.0 5.0 0.00 0.00 0.00 71 1014.5
20260906140115 64 44 2.0 5.0 0.00 0.00 0.00 70 1014.5
20260906135615 63 51 2.0 9.0 0.00 0.00 0.00 71 1014.4
20260906135116 63 338 2.0 9.0 0.00 0.00 0.00 70 1014.4
20260906134611 63 304 2.0 8.0 0.00 0.00 0.00 71 1014.4
20260906134112 63 355 2.0 10.0 0.00 0.00 0.00 71 1014.4
20260906133835 63 336 3.0 11.0 0.00 0.00 0.00 70 1014.4
20260906133112 63 329 3.0 11.0 0.00 0.00 0.00 71 1014.3
20260906132817 62 0 2.0 13.0 0.00 0.00 0.00 72 1014.3
20260906132703 62 29 2.0 13.0 0.00 0.00 0.00 73 1014.3
20260906131834 62 340 2.0 9.0 0.00 0.00 0.00 71 1014.3
20260906131113 62 36 3.0 10.0 0.00 0.00 0.00 71 1014.3
20260906130613 62 350 2.0 12.0 0.00 0.00 0.00 75 1014.3
20260906130108 61 26 2.0 12.0 0.00 0.00 0.00 79 1014.2
20260906125608 61 344 2.0 11.0 0.00 0.00 0.00 79 1014.3
20260906125109 61 331 1.0 5.0 0.00 0.00 0.00 81 1014.3
20260906124607 60 36 2.0 10.0 0.00 0.00 0.00 80 1014.3
20260906124108 60 57 2.0 10.0 0.00 0.00 0.00 81 1014.4
20260906123608 60 9 2.0 10.0 0.00 0.00 0.00 82 1014.4
20260906123328 60 345 2.0 10.0 0.00 0.00 0.00 82 1014.5
20260906122607 59 9 1.0 10.0 0.00 0.00 0.00 82 1014.5
20260906122107 59 355 1.0 5.0 0.00 0.00 0.00 82 1014.5
20260906121603 59 337 0.0 5.0 0.00 0.00 0.00 83 1014.5
20260906121103 59 5 0.0 3.0 0.00 0.00 0.00 83 1014.6
20260906120603 59 331 0.0 2.0 0.00 0.00 0.00 84 1014.5
20260906120046 59 317 1.0 5.0 0.00 0.00 0.00 85 1014.5
20260906115103 59 0 1.0 4.0 0.00 0.00 0.00 86 1014.5
20260906114603 59 11 0.0 4.0 0.00 0.00 0.00 87 1014.4
20260906114104 58 348 0.0 2.0 0.00 0.00 0.00 88 1014.3
20260906113604 58 348 0.0 2.0 0.00 0.00 0.00 87 1014.3
20260906113303 58 348 1.0 5.0 0.00 0.00 0.00 89 1014.2
20260906113150 58 348 0.0 5.0 0.00 0.00 0.00 88 1014.3
20260906112323 58 346 1.0 5.0 0.00 0.00 0.00 90 1014.2
20260906111600 58 344 1.0 5.0 0.00 0.00 0.00 91 1014.1
20260906111058 57 355 1.0 5.0 0.00 0.00 0.00 91 1014.0
20260906111045 57 338 1.0 4.0 0.00 0.00 0.00 91 1014.1
20260906110538 57 338 1.0 3.0 0.00 0.00 0.00 91 1014.0
20260906105559 57 338 1.0 4.0 0.00 0.00 0.00 90 1014.0
20260906105100 57 338 1.0 4.0 0.00 0.00 0.00 89 1014.0
20260906104552 57 0 0.0 4.0 0.00 0.00 0.00 89 1013.9
20260906104046 57 355 0.0 4.0 0.00 0.00 0.00 89 1014.0
20260906103540 57 348 1.0 5.0 0.00 0.00 0.00 89 1014.0
20260906103034 57 344 1.0 6.0 0.00 0.00 0.00 89 1014.0
20260906102529 57 342 1.0 6.0 0.00 0.00 0.00 89 1014.1
20260906102023 57 27 0.0 3.0 0.00 0.00 0.00 89 1014.0
20260906101517 57 28 0.0 5.0 0.00 0.00 0.00 89 1013.9
20260906101230 58 11 1.0 5.0 0.00 0.00 0.00 89 1013.9
20260906100732 58 13 1.0 5.0 0.00 0.00 0.00 88 1013.8
20260906095958 58 350 1.0 6.0 0.00 0.00 0.00 88 1013.8
20260906095452 59 11 1.0 6.0 0.00 0.00 0.00 87 1013.7
20260906094947 59 350 1.0 8.0 0.00 0.00 0.00 87 1013.7
20260906094440 59 350 1.0 8.0 0.00 0.00 0.00 86 1013.6
20260906093934 59 26 1.0 6.0 0.00 0.00 0.00 86 1013.4
20260906093429 59 342 1.0 6.0 0.00 0.00 0.00 86 1013.4
20260906092923 59 330 0.0 4.0 0.00 0.00 0.00 86 1013.3
20260906092416 59 316 0.0 5.0 0.00 0.00 0.00 86 1013.2
20260906091910 59 303 0.0 5.0 0.00 0.00 0.00 86 1013.2
20260906091411 59 319 0.0 2.0 0.00 0.00 0.00 86 1013.2
20260906090909 59 355 0.0 2.0 0.00 0.00 0.00 86 1013.3
20260906090409 59 355 0.0 2.0 0.00 0.00 0.00 86 1013.3
20260906090126 59 355 0.0 2.0 0.00 0.00 0.00 85 1013.4
20260906085407 59 348 0.0 1.0 0.00 0.00 0.00 85 1013.4
20260906084907 59 348 0.0 1.0 0.00 0.00 0.00 85 1013.4
20260906084408 59 348 0.0 2.0 0.00 0.00 0.00 86 1013.2
20260906083908 59 348 0.0 2.0 0.00 0.00 0.00 86 1013.3
20260906083405 58 348 0.0 3.0 0.00 0.00 0.00 87 1013.1
20260906082904 58 348 0.0 3.0 0.00 0.00 0.00 88 1013.1
20260906082401 58 355 0.0 2.0 0.00 0.00 0.00 89 1013.1
20260906081901 58 351 0.0 1.0 0.00 0.00 0.00 89 1013.1
20260906081401 58 351 0.0 0.0 0.00 0.00 0.00 90 1012.9
20260906080859 58 351 0.0 0.0 0.00 0.00 0.00 90 1012.9
20260906080628 58 351 0.0 0.0 0.00 0.00 0.00 90 1012.9
20260906075859 58 351 0.0 1.0 0.00 0.00 0.00 90 1013.0
20260906075358 58 351 0.0 1.0 0.00 0.00 0.00 90 1013.2
20260906074856 58 351 0.0 0.0 0.00 0.00 0.00 90 1013.3
20260906074355 58 351 0.0 0.0 0.00 0.00 0.00 90 1013.2
20260906073849 58 351 0.0 0.0 0.00 0.00 0.00 90 1013.3
20260906073343 58 351 0.0 0.0 0.00 0.00 0.00 90 1013.3
20260906072839 58 351 0.0 0.0 0.00 0.00 0.00 90 1013.1
20260906072333 58 351 0.0 0.0 0.00 0.00 0.00 90 1013.0
20260906071825 57 351 0.0 0.0 0.00 0.00 0.00 90 1012.8
20260906071320 57 351 0.0 0.0 0.00 0.00 0.00 90 1012.8
20260906070814 58 351 0.0 0.0 0.00 0.00 0.00 90 1012.8
20260906070308 58 351 0.0 0.0 0.00 0.00 0.00 90 1012.9
20260906070024 58 351 0.0 0.0 0.00 0.00 0.00 89 1012.8
20260906065255 58 351 0.0 0.0 0.00 0.00 0.00 89 1012.8
20260906064749 58 351 0.0 0.0 0.00 0.00 0.00 89 1012.7
20260906064244 58 351 0.0 1.0 0.00 0.00 0.00 89 1012.6
20260906063736 58 351 0.0 1.0 0.00 0.00 0.00 89 1012.5
20260906063229 58 351 0.0 0.0 0.00 0.00 0.00 88 1012.5
20260906062950 58 351 0.0 0.0 0.00 0.00 0.00 88 1012.5
20260906062218 58 351 0.0 0.0 0.00 0.00 0.00 88 1012.6
20260906061712 58 351 0.0 1.0 0.00 0.00 0.00 88 1012.6
20260906061206 58 351 0.0 1.0 0.00 0.00 0.00 88 1012.7
20260906060923 58 351 0.0 1.0 0.00 0.00 0.00 88 1012.6
20260906060155 58 351 0.0 1.0 0.00 0.00 0.00 88 1012.6
20260906055908 58 351 0.0 1.0 0.00 0.00 0.00 89 1012.6
20260906055141 58 355 0.0 0.0 0.00 0.00 0.00 89 1012.6
20260906054635 58 355 0.0 1.0 0.00 0.00 0.00 89 1012.7
20260906054353 58 355 0.0 1.0 0.00 0.00 0.00 89 1012.6
20260906053624 58 355 0.0 1.0 0.00 0.00 0.00 88 1012.6
20260906053119 58 355 0.0 0.0 0.00 0.00 0.00 88 1012.6
20260906052613 59 355 0.0 0.0 0.00 0.00 0.00 87 1012.6
20260906052106 59 355 0.0 0.0 0.00 0.00 0.00 87 1012.6
20260906051559 59 355 0.0 1.0 0.00 0.00 0.00 86 1012.6
20260906051054 59 355 0.0 1.0 0.00 0.00 0.00 86 1012.6
20260906050547 59 355 0.0 1.0 0.00 0.00 0.00 86 1012.6
20260906050042 60 355 0.0 1.0 0.00 0.00 0.00 86 1012.6
20260906045535 60 355 0.0 1.0 0.00 0.00 0.00 86 1012.5
20260906045247 60 355 0.0 1.0 0.00 0.00 0.00 85 1012.6
20260906044523 60 355 0.0 1.0 0.00 0.00 0.00 85 1012.6
20260906044018 60 355 0.0 2.0 0.00 0.00 0.00 84 1012.6
20260906043512 60 355 0.0 2.0 0.00 0.00 0.00 84 1012.6
20260906043005 61 351 0.0 2.0 0.00 0.00 0.00 83 1012.6
20260906042722 61 351 0.0 2.0 0.00 0.00 0.00 83 1012.5
20260906041954 61 351 0.0 3.0 0.00 0.00 0.00 82 1012.6
20260906041941 61 351 0.0 3.0 0.00 0.00 0.00 82 1012.6
20260906040944 61 5 0.0 0.0 0.00 0.00 0.00 82 1012.7
20260906040436 62 5 0.0 1.0 0.00 0.00 0.00 81 1012.6
20260906035930 62 5 0.0 1.0 0.00 0.00 0.00 81 1012.6
20260906035424 62 5 0.0 1.0 0.00 0.00 0.00 81 1012.5
20260906034918 62 5 0.0 1.0 0.00 0.00 0.00 81 1012.5
20260906034415 62 5 0.0 1.0 0.00 0.00 0.00 81 1012.4
20260906033908 62 5 0.0 1.0 0.00 0.00 0.00 80 1012.4
20260906033401 63 5 0.0 0.0 0.00 0.00 0.00 80 1012.4
20260906032856 63 5 0.0 1.0 0.00 0.00 0.00 80 1012.4
20260906032608 63 5 0.0 3.0 0.00 0.00 0.00 79 1012.3
20260906031843 63 5 0.0 3.0 0.00 0.00 0.00 79 1012.3
20260906031338 63 335 0.0 1.0 0.00 0.00 0.00 79 1012.2
20260906030833 63 335 0.0 1.0 0.00 0.00 0.00 79 1012.1
20260906030327 63 335 0.0 1.0 0.00 0.00 0.00 79 1012.1
20260906030041 63 335 0.0 1.0 0.00 0.00 0.00 78 1012.1
20260906025313 63 335 0.0 1.0 0.00 0.00 0.00 78 1012.1
20260906025031 63 335 0.0 4.0 0.00 0.00 0.00 78 1012.2
20260906024302 63 334 0.0 4.0 0.00 0.00 0.00 78 1012.1
20260906023800 63 349 0.0 1.0 0.00 0.00 0.00 78 1012.2
20260906023300 63 349 0.0 1.0 0.00 0.00 0.00 78 1012.1
20260906023020 63 349 0.0 1.0 0.00 0.00 0.00 78 1012.1
20260906022256 63 349 0.0 1.0 0.00 0.00 0.00 79 1012.0
20260906021755 63 349 0.0 2.0 0.00 0.00 0.00 79 1012.1
20260906021253 63 349 0.0 3.0 0.00 0.00 0.00 80 1012.0
20260906020750 63 348 0.0 3.0 0.00 0.00 0.00 80 1012.0
20260906020250 63 21 0.0 3.0 0.00 0.00 0.00 81 1011.8
20260906015750 63 21 0.0 3.0 0.00 0.00 0.00 80 1011.9
20260906015248 63 19 0.0 3.0 0.00 0.00 0.00 81 1012.0
20260906014749 62 19 0.0 3.0 0.00 0.00 0.00 81 1012.1
20260906014509 62 20 0.0 3.0 0.00 0.00 0.00 82 1012.1
20260906013749 62 21 0.0 3.0 0.00 0.00 0.00 82 1012.1
20260906013249 63 22 0.0 0.0 0.00 0.00 0.00 83 1012.2
20260906013006 63 22 0.0 0.0 0.00 0.00 0.00 82 1012.1
20260906012509 63 22 0.0 0.0 0.00 0.00 0.00 81 1012.0
20260906011749 64 22 0.0 0.0 0.00 0.00 0.00 80 1012.0
20260906011510 64 22 0.0 0.0 0.00 0.00 0.00 79 1011.9
20260906010748 64 22 0.0 1.0 0.00 0.00 0.00 79 1011.9
20260906010249 65 22 0.0 1.0 0.00 0.00 0.00 78 1011.9
20260906005748 65 22 0.0 1.0 0.00 0.00 0.00 77 1011.8
20260906005249 65 22 0.0 1.0 0.00 0.00 0.00 78 1011.8
20260906004749 65 22 0.0 0.0 0.00 0.00 0.00 78 1011.8
20260906004250 65 22 0.0 0.0 0.00 0.00 0.00 78 1011.8
20260906004019 65 22 0.0 0.0 0.00 0.00 0.00 78 1011.7
20260906003512 65 22 0.0 0.0 0.00 0.00 0.00 77 1011.7
20260906002750 66 22 0.0 0.0 0.00 0.00 0.00 77 1011.7
20260906002250 66 22 0.0 1.0 0.00 0.00 0.00 77 1011.8
20260906002004 66 22 0.0 2.0 0.00 0.00 0.00 77 1011.8
20260906001246 66 22 0.0 2.0 0.00 0.00 0.00 77 1011.7
20260906000748 65 22 0.0 2.0 0.00 0.00 0.00 77 1011.7
20260906000248 65 22 0.0 2.0 0.00 0.00 0.00 78 1011.7
20260905235746 64 22 0.0 0.0 0.00 0.00 0.00 79 1011.7
20260905235246 64 22 0.0 1.0 0.00 0.00 0.00 80 1011.6
20260905234746 64 22 0.0 1.0 0.00 0.00 0.00 81 1011.6
20260905234246 63 49 0.0 0.0 0.00 0.00 0.00 82 1011.4
20260905233747 63 49 0.0 0.0 0.00 0.00 0.00 84 1011.3
20260905233242 63 49 0.0 0.0 0.00 0.00 0.00 84 1011.4
20260905232742 64 49 0.0 0.0 0.00 0.00 0.00 83 1011.4
20260905232243 64 49 0.0 0.0 0.00 0.00 0.00 82 1011.3
20260905231742 64 49 0.0 0.0 0.00 0.00 0.00 81 1011.2
20260905231243 65 49 0.0 0.0 0.00 0.00 0.00 80 1011.1
20260905230742 66 49 0.0 0.0 0.00 0.00 0.00 79 1011.1
20260905230242 66 49 0.0 0.0 0.00 0.00 0.00 78 1011.0
20260905225742 66 49 0.0 0.0 0.00 0.00 0.00 77 1011.1
20260905225736 67 49 0.0 1.0 0.00 0.00 0.00 76 1011.1
20260905224738 67 49 0.0 1.0 0.00 0.00 0.00 75 1011.0
20260905224238 67 49 0.0 0.0 0.00 0.00 0.00 74 1010.9
20260905223738 67 49 0.0 0.0 0.00 0.00 0.00 73 1010.9
20260905223239 68 49 0.0 0.0 0.00 0.00 0.00 72 1010.8
20260905223001 68 49 0.0 1.0 0.00 0.00 0.00 71 1010.8
20260905222505 68 49 0.0 1.0 0.00 0.00 0.00 71 1010.8
20260905221740 69 49 0.0 1.0 0.00 0.00 0.00 70 1010.8
20260905221718 69 49 0.0 1.0 0.00 0.00 0.00 69 1010.7
20260905220738 69 49 0.0 2.0 0.00 0.00 0.00 70 1010.6
20260905220234 69 49 0.0 2.0 0.00 0.00 0.00 69 1010.6
20260905215735 69 71 0.0 1.0 0.00 0.00 0.00 69 1010.6
20260905215234 69 71 0.0 1.0 0.00 0.00 0.00 69 1010.5
20260905214952 69 63 0.0 2.0 0.00 0.00 0.00 70 1010.4
20260905214235 68 69 0.0 2.0 0.00 0.00 0.00 71 1010.5
20260905214001 69 69 0.0 1.0 0.00 0.00 0.00 72 1010.4
20260905213234 69 69 0.0 2.0 0.00 0.00 0.00 71 1010.4
20260905212734 69 69 0.0 2.0 0.00 0.00 0.00 70 1010.3
20260905212458 70 69 0.0 3.0 0.00 0.00 0.00 68 1010.3
20260905211734 70 69 0.0 3.0 0.00 0.00 0.00 67 1010.2
20260905211234 70 67 0.0 3.0 0.00 0.00 0.00 68 1010.1
20260905210734 69 67 0.0 3.0 0.00 0.00 0.00 70 1010.1
20260905210234 69 65 0.0 3.0 0.00 0.00 0.00 72 1010.0
20260905205958 69 66 0.0 1.0 0.00 0.00 0.00 73 1010.0
20260905205718 69 66 0.0 1.0 0.00 0.00 0.00 73 1010.0
20260905204734 69 68 0.0 1.0 0.00 0.00 0.00 72 1010.0
20260905204234 69 68 0.0 1.0 0.00 0.00 0.00 72 1010.0
20260905203733 69 68 0.0 1.0 0.00 0.00 0.00 71 1010.0
20260905203227 70 68 0.0 2.0 0.00 0.00 0.00 70 1009.9
20260905202722 70 68 0.0 2.0 0.00 0.00 0.00 70 1009.9
20260905202216 70 68 0.0 2.0 0.00 0.00 0.00 69 1009.8
20260905201935 70 67 0.0 2.0 0.00 0.00 0.00 70 1009.8
20260905201430 70 67 0.0 2.0 0.00 0.00 0.00 71 1009.7
20260905200657 69 67 0.0 1.0 0.00 0.00 0.00 71 1009.7
20260905200158 69 67 0.0 0.0 0.00 0.00 0.00 72 1009.7
20260905195658 70 67 0.0 1.0 0.00 0.00 0.00 72 1009.7
20260905195158 70 67 1.0 4.0 0.00 0.00 0.00 70 1009.8
20260905194657 71 67 1.0 4.0 0.00 0.00 0.00 69 1009.8
20260905194158 71 57 0.0 2.0 0.00 0.00 0.00 70 1009.8
20260905193656 71 56 1.0 3.0 0.00 0.00 0.00 69 1009.8
20260905193154 71 56 1.0 3.0 0.00 0.00 0.00 67 1009.8
20260905192652 72 55 1.0 4.0 0.00 0.00 0.00 66 1009.7
20260905192151 72 53 1.0 4.0 0.00 0.00 0.00 67 1009.7
20260905191652 72 67 1.0 3.0 0.00 0.00 0.00 65 1009.6
20260905191418 72 66 1.0 3.0 0.00 0.00 0.00 67 1009.6
20260905190653 72 59 1.0 5.0 0.00 0.00 0.00 68 1009.6
20260905190150 71 58 1.0 5.0 0.00 0.00 0.00 69 1009.6
20260905185651 71 57 1.0 4.0 0.00 0.00 0.00 69 1009.6
20260905185150 71 53 1.0 4.0 0.00 0.00 0.00 69 1009.6
20260905184648 71 41 1.0 3.0 0.00 0.00 0.00 70 1009.6
20260905184146 71 40 2.0 5.0 0.00 0.00 0.00 73 1009.6
20260905183646 70 67 2.0 5.0 0.00 0.00 0.00 72 1009.6
20260905183144 70 77 2.0 4.0 0.00 0.00 0.00 73 1009.6
20260905182638 70 67 1.0 4.0 0.00 0.00 0.00 74 1009.7
20260905182352 70 22 1.0 4.0 0.00 0.00 0.00 75 1009.6
20260905181633 69 64 1.0 4.0 0.00 0.00 0.00 77 1009.7
20260905181130 70 59 1.0 5.0 0.00 0.00 0.00 75 1009.7
20260905180631 70 59 1.0 5.0 0.00 0.00 0.00 75 1009.7
20260905180129 70 22 1.0 6.0 0.00 0.00 0.00 77 1009.7
20260905175627 70 0 1.0 9.0 0.00 0.00 0.00 76 1009.7
20260905175126 70 50 2.0 9.0 0.00 0.00 0.00 75 1009.6
20260905174849 70 92 1.0 8.0 0.00 0.00 0.00 79 1009.7
20260905174126 69 42 1.0 4.0 0.00 0.00 0.00 81 1009.7
20260905173844 69 40 1.0 4.0 0.00 0.00 0.00 84 1009.7
20260905173126 69 40 1.0 4.0 0.00 0.00 0.00 84 1009.7
20260905172626 68 34 0.0 3.0 0.00 0.00 0.00 87 1009.7
20260905172127 67 12 0.0 2.0 0.00 0.00 0.00 87 1009.7